Regional Weather Roundup
Issued by NWS

Home | Current Version | Previous Version | Text Only | Print | Product List | Glossary Off
Versions: 1 2 3 4 5 6 7 8 9 10 11 12 13 14 15 16 17 18 19 20 21 22 23 24 25 26 27 28 29 30 31 32 33 34 35 36 37 38 39 40 41 42 43 44 45 46 47 48 49 50

000
ASUS44 KMEG 020410
RWRTN
TENNESSEE HOURLY STATE WEATHER ROUNDUP
NATIONAL WEATHER SERVICE MEMPHIS TN
1000 PM CST SUN MAR 01 2015

TNZ002-004-019-021-049-052-054-088>092-020500-
WEST TENNESSEE

CITY           SKY/WX    TMP DP  RH WIND       PRES   REMARKS
MEMPHIS INTL   LGT RAIN  38  36  92 N6        30.39R FOG     WCI  33
NWS MEMPHIS      N/A     38 N/A N/A MISG        N/A
JACKSON        CLOUDY    38  36  92 N8        30.39R FOG     WCI  32
DYERSBURG      CLOUDY    34  21  60 N3        30.44R
UNION CITY     CLOUDY    32  32 100 N6        30.40R WCI  26
PARIS          CLOUDY    32  32 100 N6        30.39R WCI  26
LEXINGTON      CLOUDY    39  39 100 N3        30.35R
SAVANNAH       CLOUDY    48  48 100 CALM      30.34S VSB 3/4
$$

TNZ008-025-027-028-033-062-065-066-020500-
NORTH MIDDLE TENNESSEE

CITY           SKY/WX    TMP DP  RH WIND       PRES   REMARKS
NASHVILLE      LGT RAIN  46  46 100 NW12G20   30.34R VSB 1/2
CLARKSVILLE    LGT RAIN  35  34  96 N8        30.38S FOG     WCI  29
SMYRNA         MOCLDY    48  48 100 CALM      30.33R FOG
COOKEVILLE     CLOUDY    48  46  93 S3        30.30S
CROSSVILLE     CLOUDY    45  44  97 SW3       30.31R FOG
$$

TNZ061-075-076-078-094-096-097-020500-
SOUTH MIDDLE TENNESSEE

CITY           SKY/WX    TMP DP  RH WIND       PRES   REMARKS
FAYETTEVILLE   CLOUDY    46  45  93 CALM        N/A
TULLAHOMA      CLOUDY    46  46 100 S5        30.33S
WINCHESTER     CLOUDY    46  46 100 SE5       30.33S
MCMINNVILLE    CLOUDY    48  48 100 SW3       30.31F
COLUMBIA       CLOUDY   N/A N/A N/A CALM      30.32R
SHELBYVILLE    CLOUDY    50  48  93 SW3       30.33R VSB 1
$$

TNZ017-018-042-046-047-020500-
NORTHEAST TENNESSEE

CITY           SKY/WX    TMP DP  RH WIND       PRES   REMARKS
TRI CITIES     CLOUDY    43  42  97 CALM      30.31F
ELIZABETHTON   CLOUDY    43  43 100 CALM      30.30F FOG
$$

TNZ012-013-036-069-073-074-020500-
CENTRAL EAST TENNESSEE

CITY           SKY/WX    TMP DP  RH WIND       PRES   REMARKS
KNOXVILLE      CLOUDY    44  43  96 S3        30.32F FOG
OAK RIDGE      CLOUDY    45  43  93 VRB3      30.34S FOG
GATLINBURG     CLOUDY    43  41  93 CALM      30.32S
MORRISTOWN     CLOUDY    43  41  93 SW3       30.31F
$$

TNZ083-085-099-020500-
SOUTHEAST TENNESSEE

CITY           SKY/WX    TMP DP  RH WIND       PRES   REMARKS
CHATTANOOGA    LGT RAIN  47  44  90 SW3       30.36R FOG
$$

SKY/WX REPORTED AS FAIR MEANS FEW OR NO CLOUDS BELOW
12 THOUSAND FEET.



USA.gov is the U.S. government's official web portal to all federal, state and local government web resources and services.